Wind_Speed
17 16 15 15 14 13 12 11 9 7 6 7 8 7 7 7 7 4 5 3 7 9 9 8 10 11 11 8 6 1 4 10 8 10 7 11 12 13 17 17 15 14 15 17 16
15 16 15 15 15 14 12 11 9 8 8 7 8 7 7 8 10 7 7 6 5 9 11 10 8 7 5 8 8 4 9 8 9 14 9 10 11 13 15 15 15 14 11 14 15
10 13 14 14 14 14 13 12 10 10 8 8 7 8 8 10 8 10 9 8 8 9 11 13 10 7 8 7 8 6 8 6 12 13 13 8 6 5 10 11 12 11 9 11 11
7 9 11 12 13 13 13 13 12 11 10 9 8 8 9 9 5 11 10 9 10 9 14 13 11 14 12 8 9 3 9 13 7 8 6 7 7 4 9 9 12 10 7 7 9
6 7 8 10 12 12 12 12 12 12 13 10 9 9 9 8 6 11 9 11 11 13 14 17 12 9 11 9 6 16 5 9 4 3 3 4 5 6 5 6 6 9 5 4 6
6 7 7 8 9 10 11 11 12 12 13 13 10 9 10 6 11 10 11 11 12 13 16 16 20 16 12 12 14 7 3 8 3 1 3 4 5 6 7 6 4 4 2 1 4
9 9 9 9 9 10 11 11 12 12 14 13 12 11 10 7 11 11 13 12 12 14 16 19 19 21 21 8 8 6 5 8 10 9 5 1 4 6 8 3 4 3 2 2 3
12 12 12 12 12 13 13 13 13 14 14 15 15 14 11 12 14 13 12 13 14 15 17 20 19 16 15 15 14 9 9 6 11 5 3 3 2 4 3 4 5 4 7 4 5
11 11 12 13 14 15 16 16 17 18 18 18 18 18 14 17 14 13 13 14 16 17 18 20 17 17 21 19 15 13 8 10 15 5 13 10 2 3 3 5 4 2 5 3 6
9 9 9 10 11 12 13 14 15 15 16 17 19 21 19 19 17 19 19 19 18 19 19 18 19 23 26 22 13 16 11 11 12 15 14 14 6 5 5 7 7 4 6 7 7
9 9 10 11 12 12 12 10 11 12 13 13 14 17 17 17 17 22 23 24 22 22 19 20 25 24 22 25 22 18 12 20 18 14 10 18 13 12 12 9 13 9 9 11 9
10 10 10 10 10 8 6 6 5 5 5 9 10 11 13 15 17 23 24 26 27 25 25 25 22 19 21 25 32 30 22 14 15 17 11 16 18 20 10 17 18 14 12 11 14
9 10 10 10 9 8 7 5 4 4 4 7 9 10 12 15 16 19 22 27 30 31 30 29 23 22 25 28 32 37 32 20 17 12 11 6 17 18 12 7 16 11 13 13 14
9 11 12 13 12 9 8 6 5 7 10 10 11 15 15 17 14 14 20 22 30 34 35 34 30 29 31 30 30 34 31 11 19 13 7 4 20 24 21 12 5 7 15 13 11
11 12 14 14 14 11 9 8 9 10 14 12 15 15 17 15 15 19 20 25 28 36 39 38 36 34 34 32 30 30 29 21 18 32 21 19 23 17 21 15 6 9 16 15 13
13 14 15 17 18 15 14 14 15 16 19 19 17 18 19 21 22 24 29 31 30 35 42 46 44 41 39 36 35 27 31 32 33 34 34 27 20 18 22 18 14 8 13 19 19
13 14 16 15 18 20 18 18 16 20 19 21 19 22 24 25 28 26 25 27 31 32 44 50 46 45 42 43 39 33 31 38 37 39 38 24 23 20 17 22 24 13 13 14 24
12 12 14 16 15 17 19 19 19 22 19 20 22 24 25 28 27 29 29 30 34 33 38 50 52 48 44 46 44 40 31 41 41 37 34 36 29 23 20 25 30 28 23 19 17
13 13 13 12 11 12 13 13 15 17 17 21 24 26 24 19 26 28 30 35 32 30 35 40 56 53 50 50 44 44 42 36 41 36 27 22 26 18 23 34 31 31 24 21 19
12 9 8 7 8 9 11 14 15 17 20 22 24 25 27 24 23 25 27 28 32 32 34 34 48 44 51 49 49 47 41 36 35 40 38 33 32 23 26 29 36 39 28 29 30
12 9 8 10 12 13 15 17 21 20 19 22 24 25 26 26 25 24 26 29 35 30 36 40 43 48 46 41 41 43 44 44 40 41 45 42 36 18 21 25 14 26 37 30 22
16 14 14 14 14 16 19 19 19 24 26 24 23 26 26 27 26 27 26 28 36 31 28 43 45 46 43 45 41 43 42 44 45 46 46 44 39 31 26 43 35 22 27 25 21
19 19 15 17 17 20 23 23 25 25 26 26 26 26 25 26 28 27 27 28 28 33 31 42 45 47 44 45 44 35 42 46 43 48 50 44 37 35 34 29 25 28 35 27 29
20 22 19 17 19 20 24 25 29 36 28 25 25 26 26 25 26 27 27 26 23 32 35 36 38 36 45 49 43 44 41 46 47 48 46 51 43 29 35 37 43 44 39 38 46
21 21 21 22 23 21 24 27 29 30 37 25 24 26 26 26 25 27 27 26 22 25 31 40 43 41 42 50 50 44 41 42 45 41 52 45 40 33 32 37 28 41 48 43 31
20 23 22 26 26 25 29 32 30 29 31 31 29 25 26 27 28 22 26 27 26 21 24 27 35 39 35 47 52 46 40 47 45 48 45 49 44 48 41 39 39 41 50 35 38
23 24 24 24 25 28 31 29 28 32 27 31 29 26 27 27 27 27 27 27 30 33 29 26 33 39 36 49 54 49 41 41 44 45 41 52 49 49 46 40 32 42 44 39 37
Wind_Direction
223 225 225 223 222 218 216 215 220 241 257 279 296 262 251 253 247 251 259 220 175 174 159 157 174 186 195 214 269 280 292 248 141 62 69 60 38 32 41 51 60 49 71 74 65
219 223 226 228 226 223 222 226 235 246 265 269 272 281 261 253 244 243 245 252 200 196 176 175 175 180 187 221 243 271 290 273 148 127 48 47 31 27 26 41 47 50 66 80 73
217 220 224 229 231 231 235 237 245 258 266 269 258 272 273 264 253 251 248 237 234 207 185 182 192 191 197 227 257 239 27 186 150 107 80 32 36 26 34 36 47 51 50 84 72
211 218 222 227 233 237 241 246 254 269 276 277 269 257 263 264 243 239 238 245 240 210 192 184 176 193 193 204 263 231 234 39 61 68 64 14 23 19 57 35 30 44 50 70 79
199 212 222 225 230 236 240 247 255 268 280 282 274 268 262 250 245 242 236 242 228 233 212 199 182 182 213 200 219 232 241 84 11 50 264 329 34 339 37 43 15 29 40 69 91
216 213 220 229 233 237 244 249 257 265 269 273 274 266 264 256 246 241 232 225 234 230 237 215 194 202 190 193 181 203 188 211 167 97 212 327 44 356 350 341 336 12 23 125 120
225 226 228 235 239 245 246 249 254 258 263 268 270 268 267 264 249 246 242 231 224 228 235 236 219 219 244 238 192 200 149 168 200 218 219 201 341 4 339 351 309 264 295 192 177
240 236 235 235 239 244 248 249 252 255 259 262 263 265 264 262 263 254 253 243 233 224 230 244 247 243 214 218 208 197 165 195 225 201 253 310 333 11 10 8 333 312 229 210 187
232 235 236 236 239 241 245 248 250 252 252 255 260 261 257 261 267 269 260 253 245 235 228 235 245 231 233 229 217 228 232 202 261 279 301 289 288 254 301 352 359 156 187 219 204
228 229 230 233 234 239 242 246 254 261 266 268 266 266 267 262 258 256 254 253 248 245 239 233 227 225 227 228 220 217 225 248 275 289 267 269 291 281 245 292 306 280 240 224 217
237 235 235 241 242 243 247 256 257 260 264 267 269 274 271 272 264 261 260 257 255 250 247 239 228 230 227 224 220 192 220 239 257 274 315 278 245 330 267 252 274 269 256 239 233
246 244 240 240 242 239 218 193 205 243 273 286 281 279 282 272 261 258 256 255 256 251 245 243 239 233 223 222 220 227 223 232 247 257 275 310 315 307 276 241 252 251 246 242 238
247 243 242 233 225 201 187 245 271 296 312 296 295 296 299 290 280 274 267 257 254 251 248 243 237 230 223 221 219 226 228 230 248 262 226 304 294 291 254 234 240 246 236 246 247
260 251 242 232 219 204 231 263 262 301 299 285 267 276 286 289 293 288 277 273 257 252 247 245 235 233 227 217 225 225 221 209 276 224 239 282 274 276 263 238 211 301 245 241 246
270 258 246 240 222 236 256 273 275 293 303 302 307 306 299 291 293 292 298 290 269 251 248 242 237 232 234 227 214 225 203 190 234 270 268 241 251 255 270 257 251 314 261 244 230
262 260 258 251 238 254 268 279 289 296 302 301 307 310 316 315 313 311 310 296 276 255 243 243 237 231 227 228 221 210 199 197 203 251 239 231 219 203 241 271 257 267 238 243 241
267 268 263 257 254 260 270 278 283 285 295 303 305 305 308 310 312 310 315 310 306 269 243 237 233 238 233 227 219 207 200 208 215 220 237 212 232 198 250 273 268 261 211 269 246
268 270 266 263 263 263 268 273 278 285 292 292 294 300 304 311 314 314 316 313 309 292 253 241 230 226 228 233 222 201 204 217 222 226 232 241 255 243 246 276 272 280 272 260 272
273 273 272 268 269 271 268 270 285 295 294 290 291 296 298 301 307 311 314 313 309 292 273 248 236 222 223 219 225 217 202 207 229 225 219 201 212 217 250 253 265 268 271 259 282
275 273 280 287 289 282 285 282 288 298 297 293 288 288 291 295 296 303 308 302 307 275 258 254 251 235 216 220 209 210 209 210 219 231 224 210 235 201 228 247 260 265 274 277 275
263 265 270 288 292 288 288 291 301 299 290 293 290 287 290 294 297 301 301 297 306 295 256 243 245 239 220 205 205 205 209 208 218 223 219 216 217 224 210 214 239 257 263 265 275
264 256 281 292 289 283 284 295 309 306 303 293 289 286 287 291 295 305 301 296 300 304 257 239 240 242 229 200 190 196 210 212 217 219 216 228 202 222 230 229 206 193 248 270 251
264 261 260 282 288 291 297 301 306 302 303 295 293 287 288 294 296 305 303 299 295 290 275 239 243 245 242 203 193 201 208 210 225 224 211 217 204 242 225 258 232 215 218 240 226
260 260 265 271 279 291 297 299 305 305 303 296 287 286 288 292 298 305 304 298 288 281 278 259 246 244 238 203 202 210 207 210 214 229 217 210 208 243 245 241 199 216 220 235 241
265 267 272 273 282 289 292 292 293 295 297 304 290 282 283 295 296 306 300 296 291 290 295 265 251 246 231 210 213 206 208 209 212 209 223 202 216 223 253 238 239 234 235 226 201
273 269 268 276 288 290 293 293 295 292 296 296 290 282 290 292 300 303 292 291 288 283 301 270 266 250 252 213 209 206 203 205 208 211 214 213 219 216 230 232 232 243 239 226 210
270 268 270 274 277 283 286 292 296 298 300 292 283 278 282 294 290 289 287 284 281 278 281 288 259 256 228 211 217 210 211 203 200 205 214 223 222 223 227 218 232 235 239 228 198
Height
5869 5872 5874 5877 5880 5882 5884 5886 5889 5890 5892 5892 5893 5894 5895 5897 5898 5900 5901 5903 5904 5904 5906 5905 5905 5905 5909 5909 5907 5909 5910 5901 5909 5913 5914 5912 5910 5909 5910 5910 5911 5910 5908 5907 5908
5868 5870 5873 5875 5878 5881 5883 5885 5887 5889 5890 5891 5892 5892 5894 5896 5898 5900 5902 5902 5904 5904 5906 5907 5907 5906 5908 5910 5908 5909 5908 5911 5911 5909 5915 5915 5914 5913 5912 5913 5912 5912 5912 5909 5910
5868 5870 5872 5874 5876 5878 5881 5883 5885 5887 5889 5890 5891 5891 5892 5894 5898 5899 5900 5901 5902 5904 5905 5906 5909 5909 5908 5909 5910 5902 5909 5894 5906 5906 5911 5917 5918 5916 5916 5918 5916 5916 5915 5914 5914
5867 5869 5871 5873 5875 5877 5879 5881 5882 5884 5886 5887 5889 5890 5891 5892 5897 5896 5898 5900 5901 5903 5904 5906 5907 5907 5909 5909 5907 5913 5915 5905 5907 5907 5914 5918 5916 5916 5917 5919 5919 5918 5919 5918 5918
5867 5868 5870 5872 5874 5875 5877 5879 5880 5882 5883 5884 5887 5888 5889 5892 5893 5894 5896 5898 5900 5901 5903 5905 5907 5906 5907 5909 5908 5911 5915 5914 5915 5916 5917 5918 5918 5916 5919 5919 5919 5921 5922 5921 5921
5866 5867 5869 5870 5872 5874 5875 5877 5878 5880 5882 5883 5884 5886 5887 5891 5891 5892 5893 5896 5898 5899 5900 5902 5905 5904 5904 5905 5909 5912 5915 5916 5917 5917 5918 5918 5919 5918 5920 5922 5919 5921 5923 5923 5924
5865 5866 5868 5869 5871 5872 5874 5875 5876 5878 5880 5881 5882 5884 5885 5888 5888 5890 5891 5893 5896 5897 5898 5899 5901 5902 5904 5909 5911 5910 5911 5914 5914 5914 5917 5920 5921 5921 5921 5921 5922 5920 5923 5924 5925
5863 5864 5866 5867 5868 5869 5871 5873 5874 5876 5877 5878 5880 5881 5883 5884 5884 5887 5889 5891 5893 5895 5896 5896 5899 5903 5904 5906 5910 5910 5909 5911 5912 5914 5917 5921 5922 5921 5922 5921 5922 5920 5922 5924 5926
5861 5862 5863 5864 5866 5867 5868 5869 5870 5872 5873 5874 5876 5877 5881 5880 5882 5884 5886 5888 5890 5892 5893 5894 5896 5901 5901 5903 5907 5908 5911 5911 5904 5906 5911 5918 5921 5922 5923 5922 5922 5920 5922 5924 5926
5860 5861 5861 5862 5863 5864 5865 5867 5867 5869 5870 5871 5873 5876 5877 5878 5879 5879 5881 5883 5885 5888 5890 5893 5894 5894 5897 5901 5907 5908 5908 5908 5910 5912 5912 5914 5917 5919 5922 5923 5921 5923 5924 5924 5925
5858 5859 5859 5860 5860 5861 5863 5864 5867 5868 5867 5869 5870 5870 5871 5873 5874 5875 5877 5879 5881 5884 5887 5888 5889 5891 5896 5899 5902 5903 5904 5906 5909 5908 5910 5914 5918 5915 5918 5920 5920 5922 5924 5924 5924
5856 5856 5857 5857 5857 5859 5860 5861 5863 5865 5866 5865 5866 5866 5866 5866 5868 5869 5871 5874 5875 5878 5880 5883 5887 5890 5892 5894 5898 5898 5902 5905 5906 5911 5909 5908 5908 5912 5915 5918 5918 5920 5921 5923 5923
5853 5854 5855 5855 5855 5857 5858 5859 5859 5860 5862 5862 5862 5862 5862 5862 5863 5865 5866 5867 5869 5871 5873 5876 5883 5884 5885 5888 5891 5892 5897 5903 5903 5903 5907 5906 5908 5911 5915 5918 5918 5916 5919 5921 5923
5851 5852 5852 5853 5855 5855 5856 5856 5856 5857 5858 5859 5860 5858 5858 5857 5859 5859 5860 5862 5863 5864 5866 5869 5874 5876 5877 5880 5886 5888 5893 5899 5897 5899 5901 5903 5906 5903 5907 5915 5915 5914 5916 5918 5920
5848 5849 5849 5850 5851 5852 5852 5851 5851 5853 5853 5854 5852 5852 5852 5853 5852 5851 5853 5853 5853 5855 5858 5862 5864 5867 5871 5876 5877 5885 5889 5892 5895 5892 5895 5900 5902 5906 5902 5907 5911 5911 5912 5914 5917
5845 5845 5845 5846 5847 5848 5848 5847 5847 5848 5846 5847 5846 5845 5846 5845 5844 5844 5843 5844 5844 5843 5846 5848 5853 5857 5862 5865 5869 5876 5884 5884 5887 5883 5887 5896 5896 5898 5896 5900 5904 5908 5910 5910 5913
5841 5841 5841 5841 5842 5843 5843 5843 5844 5842 5842 5840 5840 5839 5839 5838 5837 5837 5837 5836 5833 5831 5832 5834 5843 5851 5854 5855 5861 5865 5872 5876 5877 5878 5879 5891 5891 5895 5892 5895 5898 5904 5908 5908 5910
5837 5836 5836 5836 5837 5837 5838 5839 5837 5835 5836 5835 5834 5833 5832 5829 5828 5828 5828 5828 5827 5821 5817 5820 5827 5836 5845 5849 5853 5855 5863 5868 5869 5874 5879 5885 5886 5890 5894 5895 5890 5894 5905 5907 5907
5834 5833 5832 5832 5832 5832 5832 5832 5831 5831 5831 5829 5828 5826 5826 5825 5822 5820 5819 5818 5817 5814 5810 5809 5809 5818 5829 5835 5845 5851 5849 5862 5867 5870 5873 5876 5882 5887 5890 5889 5889 5892 5892 5899 5900
5830 5829 5829 5829 5828 5828 5828 5826 5826 5825 5824 5822 5821 5820 5818 5818 5817 5815 5812 5810 5810 5806 5803 5805 5797 5807 5817 5823 5827 5836 5850 5852 5857 5860 5863 5867 5872 5876 5881 5885 5884 5885 5885 5888 5894
5826 5826 5825 5825 5824 5824 5822 5822 5819 5819 5819 5816 5813 5812 5810 5809 5808 5808 5806 5801 5798 5800 5797 5793 5791 5796 5806 5810 5822 5831 5835 5841 5849 5853 5855 5860 5864 5872 5873 5875 5877 5878 5879 5883 5887
5820 5821 5820 5820 5820 5818 5817 5816 5814 5810 5809 5808 5807 5803 5802 5801 5800 5798 5796 5791 5787 5787 5787 5786 5785 5785 5793 5804 5810 5818 5826 5836 5837 5841 5846 5854 5859 5863 5865 5863 5864 5875 5875 5878 5881
5814 5814 5815 5814 5813 5811 5810 5808 5807 5806 5801 5799 5798 5796 5794 5792 5791 5789 5786 5783 5780 5776 5775 5777 5777 5776 5786 5804 5807 5810 5812 5817 5827 5832 5835 5844 5853 5853 5857 5860 5863 5859 5868 5871 5869
5808 5807 5808 5808 5807 5806 5803 5802 5799 5793 5794 5792 5790 5788 5785 5784 5782 5780 5777 5774 5771 5766 5765 5765 5770 5769 5774 5786 5793 5790 5796 5803 5810 5818 5828 5833 5845 5849 5848 5850 5851 5851 5855 5858 5861
5802 5802 5801 5800 5800 5800 5798 5796 5794 5790 5781 5785 5782 5779 5777 5776 5774 5771 5768 5766 5763 5759 5755 5755 5754 5758 5759 5771 5769 5777 5787 5793 5799 5806 5819 5830 5833 5835 5838 5844 5841 5843 5848 5851 5843
5797 5796 5797 5794 5792 5791 5788 5787 5785 5782 5778 5773 5771 5771 5769 5767 5765 5763 5760 5757 5755 5755 5749 5749 5747 5747 5755 5767 5764 5771 5779 5786 5791 5800 5807 5814 5822 5819 5820 5830 5832 5834 5835 5842 5844
5789 5788 5789 5788 5786 5784 5781 5778 5775 5771 5771 5765 5764 5762 5760 5759 5756 5753 5750 5748 5746 5745 5744 5740 5738 5741 5743 5757 5757 5761 5773 5773 5779 5791 5796 5804 5809 5802 5813 5823 5825 5827 5833 5834 5837